MB7UUE Weather Reports


time (UTC)temp
C
wind
direction
speed
KPH
gust
KPH
rain 1hr
cm
rain 24hr
cm
rain mn
cm
humidity
%
barometer
mb
20260507224058 10 98 0.0 19.3 0.00 0.00 0.00 78 1016.9
20260507222159 11 99 0.0 19.3 0.00 0.00 0.00 78 1016.9
20260507220258 11 126 0.0 19.3 0.00 0.00 0.00 77 1016.8
20260507214357 11 89 0.0 19.3 0.00 0.00 0.00 76 1016.9
20260507212458 11 85 0.0 19.3 0.00 0.00 0.00 75 1016.9
20260507210558 11 91 0.0 19.3 0.00 0.00 0.00 75 1016.8
20260507204659 12 108 0.0 19.3 0.00 0.00 0.00 75 1016.6
20260507202758 12 98 0.0 19.3 0.00 0.00 0.00 74 1016.5
20260507200858 12 91 0.0 19.3 0.00 0.00 0.00 74 1016.4
20260507194958 12 111 0.0 19.3 0.00 0.00 0.00 72 1016.1
20260507193057 12 101 1.6 19.3 0.00 0.00 0.00 72 1016.0
20260507191158 12 112 0.0 19.3 0.00 0.00 0.00 72 1016.0
20260507185258 12 108 1.6 19.3 0.00 0.00 0.00 71 1016.0
20260507183359 12 111 1.6 19.3 0.00 0.00 0.00 65 1016.1
20260507181451 13 87 3.2 19.3 0.00 0.00 0.00 65 1016.0
20260507180638 13 114 4.8 19.3 0.00 0.00 0.00 65 1016.0
20260507174737 13 110 0.0 19.3 0.00 0.00 0.00 65 1015.9
20260507172838 13 124 0.0 19.3 0.00 0.00 0.00 60 1015.8
20260507170937 13 134 1.6 19.3 0.00 0.00 0.00 60 1015.7
20260507165038 14 184 12.9 19.3 0.00 0.00 0.00 58 1015.8
20260507163138 14 132 0.0 19.3 0.00 0.00 0.00 58 1015.9
20260507161239 14 133 4.8 19.3 0.00 0.00 0.00 57 1016.0
20260507155338 14 127 1.6 19.3 0.00 0.00 0.00 57 1016.0
20260507153438 14 129 0.0 19.3 0.00 0.00 0.00 55 1016.0
20260507151539 15 113 1.6 19.3 0.00 0.00 0.00 55 1015.9
20260507145638 15 135 9.7 19.3 0.00 0.00 0.00 55 1015.9
20260507143738 15 140 3.2 12.9 0.00 0.00 0.00 55 1015.9
20260507141839 15 131 3.2 12.9 0.00 0.00 0.00 54 1016.0
20260507135938 15 128 4.8 12.9 0.00 0.00 0.00 53 1016.1
20260507134038 15 129 1.6 11.3 0.00 0.00 0.00 53 1016.1
20260507132139 15 59 0.0 11.3 0.00 0.00 0.00 55 1016.2
20260507130238 15 137 4.8 11.3 0.00 0.00 0.00 59 1016.3
20260507124339 15 143 3.2 9.7 0.00 0.00 0.00 59 1016.3
20260507122439 14 137 0.0 0.0 0.00 0.00 0.00 59 1016.4
20260507120538 13 132 0.0 0.0 0.00 0.00 0.00 58 1016.4
20260507114638 13 132 0.0 0.0 0.00 0.00 0.00 59 1016.4
20260507112738 13 136 0.0 0.0 0.00 0.00 0.00 62 1016.5
20260507110839 13 125 0.0 0.0 0.00 0.00 0.00 62 1016.5
20260507104938 13 142 0.0 0.0 0.00 0.00 0.00 61 1016.6
20260507103038 13 136 0.0 0.0 0.00 0.00 0.00 61 1016.5
20260507101139 13 47 0.0 0.0 0.00 0.00 0.00 61 1016.6
20260507095238 13 137 0.0 0.0 0.00 0.00 0.00 63 1016.5
20260507093339 13 76 0.0 0.0 0.00 0.00 0.00 63 1016.5
20260507091438 12 130 0.0 0.0 0.00 0.00 0.00 64 1016.6
20260507085538 12 127 0.0 0.0 0.00 0.00 0.00 67 1016.6
20260507083639 12 93 0.0 0.0 0.00 0.00 0.00 68 1016.5
20260507081738 11 123 0.0 0.0 0.00 0.00 0.00 70 1016.5
20260507075839 11 94 0.0 0.0 0.00 0.00 0.00 71 1016.4
20260507073939 11 101 0.0 0.0 0.00 0.00 0.00 73 1016.4
20260507072038 10 273 0.0 0.0 0.00 0.00 0.00 74 1016.3
20260507070115 10 78 0.0 0.0 0.00 0.00 0.00 76 1016.2
20260507064214 10 66 0.0 0.0 0.00 0.00 0.00 76 1016.2
20260507062314 9 108 0.0 0.0 0.00 0.00 0.00 78 1016.1
20260507060415 9 79 0.0 0.0 0.00 0.00 0.00 79 1016.0
20260507054514 8 25 0.0 0.0 0.00 0.00 0.00 78 1015.9
20260507052615 8 34 0.0 0.0 0.00 0.00 0.00 78 1015.7
20260507050715 8 0 0.0 0.0 0.00 0.00 0.00 78 1015.7
20260507044816 8 0 0.0 0.0 0.00 0.00 0.00 78 1015.6
20260507042914 8 0 0.0 0.0 0.00 0.00 0.00 78 1015.5
20260507041015 8 0 0.0 0.0 0.00 0.00 0.00 78 1015.5
20260507035114 8 0 0.0 0.0 0.00 0.00 0.00 78 1015.4
20260507033214 8 0 0.0 0.0 0.00 0.00 0.00 78 1015.4
20260507031315 8 0 0.0 0.0 0.00 0.00 0.00 77 1015.4
20260507025414 9 0 0.0 0.0 0.00 0.00 0.00 77 1015.4
20260507023515 9 5 0.0 0.0 0.00 0.00 0.00 77 1015.3
20260507021615 9 61 0.0 0.0 0.00 0.00 0.00 76 1015.1
20260507015715 9 62 0.0 0.0 0.00 0.00 0.00 76 1015.0
20260507013814 9 76 0.0 0.0 0.00 0.00 0.00 75 1015.1
20260507011914 10 87 0.0 0.0 0.00 0.00 0.00 75 1015.0
20260507010015 10 88 0.0 0.0 0.00 0.00 0.00 75 1015.0
20260507004115 10 110 0.0 0.0 0.00 0.00 0.00 75 1015.0
20260507002214 10 76 0.0 0.0 0.00 0.00 0.00 75 1015.0
20260507000315 10 138 0.0 0.0 0.00 0.00 0.00 75 1015.0
20260506234415 10 61 0.0 0.0 0.00 0.00 0.00 75 1015.0
20260506232514 10 116 0.0 0.0 0.00 0.00 0.00 75 1015.0
20260506230614 11 89 0.0 0.0 0.00 0.00 0.00 75 1015.0